TimeCET,TemperatureF,Dew PointF,Humidity,Sea Level PressureIn,VisibilityMPH,Wind Direction,Wind SpeedMPH,Gust SpeedMPH,PrecipitationIn,Events,Conditions,WindDirDegrees,DateUTC
12:00 AM,59.0,55.4,88,29.62,5.6,SW,11.5,-,N/A,,Scattered Clouds,230,2013-03-26 23:00:00
12:30 AM,59.0,55.4,88,29.62,5.6,SW,10.4,-,N/A,,Mostly Cloudy,230,2013-03-26 23:30:00
1:00 AM,58,54,81,29.62,6,SW,11.5,,,,Mist,230,2013-03-27 00:00:00
1:00 AM,59.0,57.2,94,29.62,5.6,SSW,9.2,-,N/A,,Scattered Clouds,210,2013-03-27 00:00:00
1:30 AM,59.0,55.4,88,29.59,5.6,SSW,11.5,-,N/A,,Scattered Clouds,210,2013-03-27 00:30:00
2:00 AM,59.0,55.4,88,29.59,6.2,SSW,11.5,-,N/A,,Scattered Clouds,210,2013-03-27 01:00:00
2:30 AM,59.0,55.4,88,29.59,6.2,SSW,8.1,-,N/A,,Scattered Clouds,200,2013-03-27 01:30:00
3:00 AM,57.2,55.4,94,29.59,6.2,South,5.8,-,N/A,,Scattered Clouds,180,2013-03-27 02:00:00
3:30 AM,57.2,55.4,94,29.59,6.2,Variable,2.3,-,N/A,,Scattered Clouds,0,2013-03-27 02:30:00
4:00 AM,59.0,55.4,88,29.56,6.2,SSW,4.6,-,N/A,,Scattered Clouds,210,2013-03-27 03:00:00
4:30 AM,57.2,55.4,94,29.56,6.2,SSW,6.9,-,N/A,,Partly Cloudy,200,2013-03-27 03:30:00
5:00 AM,57.2,55.4,94,29.56,6.2,Variable,1.2,-,N/A,,Partly Cloudy,0,2013-03-27 04:00:00
5:30 AM,57.2,55.4,94,29.56,6.2,South,6.9,-,N/A,,Scattered Clouds,190,2013-03-27 04:30:00
6:00 AM,57.2,55.4,94,29.56,6.2,Variable,1.2,-,N/A,,Scattered Clouds,0,2013-03-27 05:00:00
6:30 AM,57.2,53.6,88,29.56,6.2,SSE,6.9,-,N/A,,Scattered Clouds,160,2013-03-27 05:30:00
7:00 AM,57,51,75,29.60,16,Calm,Calm,,,,Scattered Clouds,,2013-03-27 06:00:00
7:00 AM,59.0,53.6,82,29.59,6.2,SSE,3.5,-,N/A,,Partly Cloudy,150,2013-03-27 06:00:00
7:30 AM,59.0,53.6,82,29.59,6.2,SW,9.2,-,N/A,,Partly Cloudy,230,2013-03-27 06:30:00
8:00 AM,59.0,55.4,88,29.59,6.2,SW,9.2,-,N/A,,Partly Cloudy,220,2013-03-27 07:00:00
8:30 AM,60.8,55.4,82,29.59,6.2,SW,8.1,-,N/A,,Partly Cloudy,230,2013-03-27 07:30:00
9:00 AM,62.6,53.6,72,29.59,6.2,WSW,9.2,-,N/A,,Partly Cloudy,240,2013-03-27 08:00:00
9:30 AM,62.6,53.6,72,29.59,6.2,West,6.9,-,N/A,,Partly Cloudy,270,2013-03-27 08:30:00
10:00 AM,64.4,55.4,73,29.62,6.2,WSW,5.8,-,N/A,,Partly Cloudy,250,2013-03-27 09:00:00
10:30 AM,62.6,55.4,77,29.62,6.2,SSW,8.1,-,N/A,,Partly Cloudy,200,2013-03-27 09:30:00
11:00 AM,64.4,55.4,73,29.62,6.2,SSW,8.1,-,N/A,,Scattered Clouds,210,2013-03-27 10:00:00
11:30 AM,64.4,53.6,68,29.62,6.2,SSW,10.4,-,N/A,,Scattered Clouds,210,2013-03-27 10:30:00
12:00 PM,64.4,53.6,68,29.62,6.2,SW,11.5,-,N/A,,Partly Cloudy,220,2013-03-27 11:00:00
12:30 PM,66.2,55.4,68,29.62,6.2,SW,11.5,-,N/A,,Partly Cloudy,220,2013-03-27 11:30:00
1:00 PM,66,52,51,29.67,16,SSW,13.8,,,,Partly Cloudy,210,2013-03-27 12:00:00
1:00 PM,66.2,55.4,68,29.62,6.2,SW,12.7,-,N/A,,Partly Cloudy,220,2013-03-27 12:00:00
1:30 PM,66.2,53.6,64,29.62,6.2,SW,13.8,-,N/A,,Partly Cloudy,230,2013-03-27 12:30:00
2:00 PM,66.2,48.2,52,29.62,6.2,West,16.1,-,N/A,,Partly Cloudy,260,2013-03-27 13:00:00
2:30 PM,66.2,53.6,64,29.62,6.2,SW,16.1,-,N/A,,Partly Cloudy,230,2013-03-27 13:30:00
3:00 PM,66.2,51.8,60,29.62,6.2,SW,12.7,-,N/A,,Partly Cloudy,220,2013-03-27 14:00:00
3:30 PM,66.2,53.6,64,29.62,6.2,SW,15.0,-,N/A,,Partly Cloudy,220,2013-03-27 14:30:00
4:00 PM,66.2,53.6,64,29.62,6.2,SW,15.0,-,N/A,,Partly Cloudy,230,2013-03-27 15:00:00
4:30 PM,64.4,53.6,68,29.62,6.2,SW,15.0,-,N/A,,Partly Cloudy,220,2013-03-27 15:30:00
5:00 PM,64.4,53.6,68,29.62,6.2,SW,16.1,-,N/A,,Partly Cloudy,220,2013-03-27 16:00:00
5:30 PM,64.4,55.4,73,29.62,6.2,SW,15.0,-,N/A,,Partly Cloudy,220,2013-03-27 16:30:00
6:00 PM,62.6,55.4,77,29.65,6.2,SW,12.7,-,N/A,,Partly Cloudy,220,2013-03-27 17:00:00
6:30 PM,62.6,55.4,77,29.65,6.2,SW,10.4,-,N/A,,Partly Cloudy,230,2013-03-27 17:30:00
7:00 PM,60,53,71,29.67,9,SSW,13.8,,,,Scattered Clouds,200,2013-03-27 18:00:00
7:00 PM,60.8,55.4,82,29.65,6.2,SSW,11.5,-,N/A,,Partly Cloudy,210,2013-03-27 18:00:00
7:30 PM,59.0,57.2,94,29.68,5.6,SSW,10.4,-,N/A,,Partly Cloudy,210,2013-03-27 18:30:00
8:00 PM,59.0,57.2,94,29.68,5.6,SSW,3.5,-,N/A,,Partly Cloudy,200,2013-03-27 19:00:00
8:30 PM,59.0,57.2,94,29.68,5.6,SSW,4.6,-,N/A,,Partly Cloudy,200,2013-03-27 19:30:00
9:00 PM,59.0,57.2,94,29.68,5.6,SSW,3.5,-,N/A,,Partly Cloudy,200,2013-03-27 20:00:00
9:30 PM,59.0,57.2,94,29.71,6.2,South,2.3,-,N/A,,Partly Cloudy,190,2013-03-27 20:30:00
10:00 PM,59.0,57.2,94,29.71,6.2,SSW,5.8,-,N/A,,Partly Cloudy,200,2013-03-27 21:00:00
10:30 PM,59.0,57.2,94,29.68,6.2,South,2.3,-,N/A,,Partly Cloudy,190,2013-03-27 21:30:00
11:00 PM,57.2,55.4,94,29.71,6.2,South,2.3,-,N/A,,Partly Cloudy,180,2013-03-27 22:00:00
11:30 PM,59.0,57.2,94,29.71,5.6,South,4.6,-,N/A,,Scattered Clouds,180,2013-03-27 22:30:00